sat.trackr.live / text

‹ back to catalog

STARLINK-30489

NORAD 57974 · 2023-151L

PAYLOAD ACTIVE UNKNOWN

§ Identity

Operator
Country
US
Launch date
2023-09-30
Launch site
AFETR
Launch vehicle
Mass (kg)
RCS (m²)

Purposes: comms

External: N2YO · Heavens-Above · Gunter

§ Orbital elements

Epoch: 2026-05-25T00:59:52.315872Z

Period
94.27 min
Inclination
43.0042°
Eccentricity
0.0001809
Mean motion
15.27593409 rev/d
Perigee alt
481.8 km
Apogee alt
484.3 km
Semi-major
6,861.1 km
B*
-1.5447e-5
RAAN
264.7843°
Arg perigee
274.1896°
Mean anomaly
85.8749°
Rev number
14,744

§ Raw data

STARLINK-304891 57974U 23151L   26145.04157773 -.00000688  00000+0 -15447-4 0  99942 57974  43.0042 264.7843 0001809 274.1896  85.8749 15.27593409147442

JSON: /api/v1/satellites/57974 · /tle

For live sub-satellite position, see the globe view (requires WebGL).

§ Visibility from observer

Set your observer location to see the next 7 days of passes ≥ 10°. The values pass through the URL so the page stays shareable.

No JS? Fill the form by hand. The geolocation button needs JavaScript.